Location: Gairloch Mountain Observatory
(46.1383°N, 60.9640°W)
Time: 07:49:02
(UTC-04:00)

CENTAUR R/B - Visible Passes

Search period start: 09 February 2016 00:00
Search period end: 19 February 2016 00:00
Orbit: 866 x 1322 km, 63.5° (Epoch: 03 February)

Date Brightness Start Highest point End Pass type
(mag) Time Alt. Az. Time Alt. Az. Time Alt. Az.
09 Feb 4.8 02:37:26 19° ENE 02:37:26 19° ENE 02:39:28 10° NE visible
09 Feb 3.1 04:24:37 46° NNW 04:24:37 46° NNW 04:30:35 10° NE visible
09 Feb 4.2 06:11:48 12° WNW 06:16:15 22° NNW 06:21:48 10° NE visible
10 Feb 3.7 03:38:01 39° NNE 03:38:01 39° NNE 03:42:20 10° NE visible
10 Feb 3.8 05:25:12 22° NW 05:27:19 26° NNW 05:33:16 10° NNE visible
11 Feb 4.5 02:51:22 25° NE 02:51:22 25° NE 02:54:02 10° NE visible
11 Feb 3.5 04:38:33 33° NNW 04:38:33 33° NNW 04:44:54 10° NNE visible
11 Feb 4.4 06:26:38 10° NW 06:31:35 20° N 06:36:53 10° NE visible
12 Feb 5.1 02:04:42 14° NE 02:04:42 14° NE 02:05:36 10° NE visible
12 Feb 3.7 03:51:52 36° N 03:51:52 36° N 03:56:38 10° NNE visible
12 Feb 4.2 05:39:03 15° NW 05:42:31 21° NNW 05:47:59 10° NE visible
13 Feb 4.3 03:05:10 28° NNE 03:05:10 28° NNE 03:08:24 10° NE visible
13 Feb 3.9 04:52:21 24° NW 04:53:32 25° NNW 04:59:23 10° NNE visible
14 Feb 4.9 02:18:27 18° NE 02:18:27 18° NE 02:20:07 10° NE visible
14 Feb 3.9 04:05:37 30° NNW 04:05:37 30° NNW 04:10:59 10° NNE visible
14 Feb 4.5 05:52:53 10° NW 05:57:50 20° N 06:03:09 10° NE visible
15 Feb 5.4 01:31:42 10° NE 01:31:42 10° NE 01:31:44 10° NE visible
15 Feb 4.2 03:18:52 29° N 03:18:52 29° N 03:22:42 10° NNE visible
15 Feb 4.3 05:06:03 17° NW 05:08:46 21° N 05:14:10 10° NE visible
16 Feb 4.7 02:32:06 22° NNE 02:32:06 22° NNE 02:34:28 10° NE visible
16 Feb 4.1 04:19:16 24° NNW 04:19:45 24° NNW 04:25:31 10° NNE visible
16 Feb 4.6 06:07:57 10° NW 06:13:12 21° N 06:18:47 10° ENE visible
17 Feb 5.2 01:45:19 14° NE 01:45:19 14° NE 01:46:12 10° NE visible
17 Feb 4.2 03:32:29 27° N 03:32:29 27° N 03:37:04 10° NNE visible
17 Feb 4.6 05:19:39 12° NW 05:24:06 20° N 05:29:26 10° NE visible
18 Feb 4.5 02:45:41 24° NNE 02:45:41 24° NNE 02:48:46 10° NNE visible
18 Feb 4.3 04:32:51 18° NNW 04:35:02 20° N 04:40:23 10° NE visible
18 Feb 4.5 06:22:38 10° NNW 06:28:28 25° NNE 06:34:42 10° ENE visible
